Weather Roundup
Issued by NWS Chicago, IL

Home | Current Version | Previous Version | Text Only | Print | Product List | Glossary Off
Versions: 1 2 3 4 5 6 7 8 9 10 11 12 13 14 15 16 17 18 19 20 21 22 23 24 25 26 27 28 29 30 31 32 33 34 35 36 37 38 39 40 41 42 43 44 45 46 47 48 49 50

000
NZUS59 KLOT 110203
HRRLOT

CHICAGO AREA WEATHER ROUNDUP
NATIONAL WEATHER SERVICE CHICAGO/ROMEOVILLE IL
800 PM CST WED FEB 10 2016

NOTE: "FAIR" INDICATES FEW OR NO CLOUDS BELOW 12,000 FEET WITH NO
SIGNIFICANT WEATHER AND/OR OBSTRUCTIONS TO VISIBILITY.

* THESE STATIONS ARE NOT UNDER NWS QUALITY CONTROL. THEY ALSO MAY NOT
  REPORT WEATHER SUCH AS PRECIPITATION OR FOG.

ILZ005-006-012>014-019>023-110300-
NORTHEAST ILLINOIS

CITY           SKY/WX    TMP DP  RH WIND       PRES   REMARKS
OHARE          MOCLDY    13   1  59 N10       30.12R WCI   0
MIDWAY         MOCLDY    15   0  51 NW9       30.13R WCI   3
AURORA         PTCLDY    13   3  64 N7        30.14R WCI   3
LANSING*       PTCLDY    15   3  57 NW8       30.13R WCI   5
WAUKEGAN       PTCLDY     9   0  67 CALM      30.12R
DUPAGE AIRPORT CLOUDY    11   1  64 N7        30.12R WCI   0
WHEELING       PTCLDY    12   1  61 N7        30.14S WCI   1
MORRIS*        PTCLDY    14   6  70 NW3       30.12R
$$

WIZ051-052-058>065-066-070>072-110300-
SOUTHEAST WISCONSIN

CITY           SKY/WX    TMP DP  RH WIND       PRES   REMARKS
MILWAUKEE      MOCLDY    11  -2  56 NW6       30.13R WCI   1
KENOSHA*       CLEAR     10  -1  61 NW5       30.12R WCI   2
RACINE*        CLEAR     10  -3  55 NW5       30.14R WCI   2
BURLINGTON     CLEAR      6  -2  71 CALM      30.12S
WAUKESHA       CLEAR      5  -2  72 W3        30.12R
$$

INZ001>003-010>013-019-020-110300-
NORTHWEST INDIANA

CITY           SKY/WX    TMP DP  RH WIND       PRES   REMARKS
GARY*          MOCLDY    18   1  49 NW9       30.12R WCI   6
MICHIGAN CITY* NOT AVBL
RENSSELAER*    NOT AVBL
VALPARAISO     LGT SNOW  16   8  71 W7        30.10R WCI   6
$$

LMZ740>746-110300-
SOUTHERN LAKE MICHIGAN

STATION/POSITION TIME  SKY/WX   TEMP WIND        PRES    VSBY
                                AIR  DIR/SP/G
                 (UTC)          (F)  (DEG/KT/KT) (MB)    (MI)
HARRISON CRIB    0100            17  320/ 13/ 15   N/A
BURNHAM HARBOR   0200            15  310/  6/ 12   N/A
CALUMET HARBOR   0100            15  330/  9/ 12 1019.1R
BURNS HARBOR     0100            18  330/ 11/ 17 1019.6R
MICHIGAN CITY    0100            17  290/ 11/ 14   N/A
$$

ABBREVIATIONS USED IN REMARKS
   TC - TEMPERATURE IN CELSIUS
  WCI - WIND CHILL INDEX
   HX - HEAT INDEX
  VSB - VISIBILITY
$$



USA.gov is the U.S. government's official web portal to all federal, state and local government web resources and services.